Hourly Weather Abay (Maktaaralskiy rayon)

Today, 21 October, Wednesday

Time Temperature Precipitation Wind Pressure Humidity
00:00 +16°C° 0 mm 1 mps 739 mmHg 23%
01:00 +15°C° 0 mm 1 mps 739 mmHg 23%
02:00 +14°C° 0 mm 1 mps 739 mmHg 23%
03:00 +14°C° 0 mm 1 mps 739 mmHg 24%
04:00 +14°C° 0 mm 1 mps 740 mmHg 24%
05:00 +13°C° 0 mm 1 mps 740 mmHg 24%
06:00 +14°C° 0 mm 1 mps 740 mmHg 23%
07:00 +15°C° 0 mm 1 mps 741 mmHg 22%
08:00 +16°C° 0 mm 1 mps 741 mmHg 20%
09:00 +20°C° 0 mm 1 mps 741 mmHg 18%
10:00 +23°C° 0 mm 1 mps 741 mmHg 15%
11:00 +26°C° 0 mm 1 mps 742 mmHg 12%
12:00 +27°C° 0 mm 1 mps 741 mmHg 11%
13:00 +28°C° 0 mm 2 mps 741 mmHg 11%
14:00 +28°C° 0 mm 2 mps 741 mmHg 10%
15:00 +27°C° 0 mm 2 mps 741 mmHg 11%
16:00 +26°C° 0 mm 3 mps 741 mmHg 13%
17:00 +24°C° 0 mm 3 mps 741 mmHg 14%
18:00 +23°C° 0 mm 2 mps 741 mmHg 16%
19:00 +21°C° 0 mm 1 mps 741 mmHg 17%
20:00 +19°C° 0 mm 1 mps 741 mmHg 19%
21:00 +18°C° 0 mm 1 mps 741 mmHg 20%
22:00 +16°C° 0 mm 1 mps 741 mmHg 20%
23:00 +16°C° 0 mm 1 mps 741 mmHg 21%

Tomorrow, 22 October, Thursday

Time Temperature Precipitation Wind Pressure Humidity
00:00 +15°C° 0 mm 2 mps 741 mmHg 24%
01:00 +14°C° 0 mm 2 mps 741 mmHg 26%
02:00 +13°C° 0 mm 3 mps 741 mmHg 29%
03:00 +12°C° 0 mm 3 mps 742 mmHg 39%
04:00 +12°C° 0 mm 4 mps 742 mmHg 49%
05:00 +12°C° 0 mm 4 mps 743 mmHg 60%
06:00 +12°C° 0 mm 4 mps 743 mmHg 57%
07:00 +12°C° 0 mm 3 mps 743 mmHg 55%
08:00 +12°C° 0 mm 3 mps 744 mmHg 53%
09:00 +13°C° 0 mm 3 mps 744 mmHg 49%
10:00 +14°C° 0 mm 3 mps 744 mmHg 44%
11:00 +17°C° 0 mm 3 mps 744 mmHg 40%
12:00 +17°C° 0 mm 3 mps 743 mmHg 38%
13:00 +18°C° 0 mm 3 mps 742 mmHg 37%
14:00 +18°C° 0 mm 4 mps 742 mmHg 35%
15:00 +17°C° 0 mm 4 mps 742 mmHg 36%
16:00 +17°C° 0 mm 4 mps 741 mmHg 37%
17:00 +15°C° 0 mm 4 mps 741 mmHg 38%
18:00 +14°C° 0 mm 3 mps 741 mmHg 39%
19:00 +12°C° 0 mm 3 mps 742 mmHg 41%
20:00 +11°C° 0 mm 3 mps 742 mmHg 42%
21:00 +11°C° 0 mm 3 mps 742 mmHg 42%
22:00 +10°C° 0 mm 3 mps 742 mmHg 42%
23:00 +9°C° 0 mm 2 mps 741 mmHg 41%

Day after tomorrow, 23 October, Friday

Time Temperature Precipitation Wind Pressure Humidity
00:00 +9°C° 0 mm 2 mps 741 mmHg 41%
01:00 +9°C° 0 mm 2 mps 741 mmHg 41%
02:00 +9°C° 0 mm 2 mps 741 mmHg 41%
03:00 +9°C° 0 mm 2 mps 741 mmHg 42%
04:00 +10°C° 0 mm 1 mps 742 mmHg 43%
05:00 +10°C° 0 mm 1 mps 742 mmHg 43%
06:00 +9°C° 0 mm 2 mps 742 mmHg 46%
07:00 +9°C° 0 mm 2 mps 743 mmHg 48%
08:00 +9°C° 0 mm 3 mps 743 mmHg 50%
09:00 +11°C° 0 mm 3 mps 744 mmHg 46%
10:00 +12°C° 0 mm 3 mps 744 mmHg 43%
11:00 +14°C° 0 mm 3 mps 744 mmHg 39%
12:00 +16°C° 0 mm 2 mps 744 mmHg 36%
13:00 +17°C° 0 mm 2 mps 744 mmHg 33%
14:00 +17°C° 0 mm 2 mps 744 mmHg 31%
15:00 +17°C° 0 mm 2 mps 744 mmHg 32%
16:00 +16°C° 0 mm 2 mps 744 mmHg 33%
17:00 +15°C° 0 mm 2 mps 744 mmHg 34%
18:00 +14°C° 0 mm 2 mps 744 mmHg 38%
19:00 +12°C° 0 mm 2 mps 745 mmHg 42%
20:00 +10°C° 0 mm 2 mps 745 mmHg 46%
21:00 +9°C° 0 mm 2 mps 745 mmHg 48%
22:00 +9°C° 0 mm 2 mps 745 mmHg 50%
23:00 +8°C° 0 mm 2 mps 745 mmHg 52%

24 October, Saturday

Time Temperature Precipitation Wind Pressure Humidity
00:00 +8°C° 0 mm 2 mps 745 mmHg 53%
01:00 +7°C° 0 mm 2 mps 745 mmHg 54%
02:00 +7°C° 0 mm 2 mps 745 mmHg 55%
03:00 +8°C° 0 mm 1 mps 745 mmHg 55%
04:00 +8°C° 0 mm 1 mps 745 mmHg 55%
05:00 +8°C° 0 mm 1 mps 744 mmHg 55%
06:00 +9°C° 0 mm 1 mps 745 mmHg 53%
07:00 +9°C° 0 mm 1 mps 745 mmHg 50%
08:00 +10°C° 0 mm 1 mps 745 mmHg 48%
09:00 +12°C° 0 mm 1 mps 745 mmHg 43%
10:00 +14°C° 0 mm 1 mps 745 mmHg 37%
11:00 +16°C° 0 mm 1 mps 744 mmHg 32%
12:00 +17°C° 0 mm 2 mps 744 mmHg 30%
13:00 +17°C° 0 mm 2 mps 744 mmHg 29%
14:00 +18°C° 0 mm 2 mps 744 mmHg 27%
15:00 +17°C° 0 mm 2 mps 744 mmHg 29%
16:00 +17°C° 0 mm 2 mps 744 mmHg 30%
17:00 +16°C° 0 mm 3 mps 744 mmHg 32%
18:00 +14°C° 0 mm 3 mps 744 mmHg 35%
19:00 +12°C° 0 mm 3 mps 745 mmHg 39%
20:00 +10°C° 0 mm 4 mps 745 mmHg 43%
21:00 +10°C° 0 mm 3 mps 745 mmHg 45%
22:00 +9°C° 0 mm 3 mps 745 mmHg 46%
23:00 +8°C° 0 mm 3 mps 745 mmHg 48%

25 October, Sunday

Time Temperature Precipitation Wind Pressure Humidity
00:00 +8°C° 0 mm 2 mps 745 mmHg 50%
01:00 +7°C° 0 mm 2 mps 746 mmHg 51%
02:00 +8°C° 0 mm 1 mps 746 mmHg 52%
03:00 +8°C° 0 mm 1 mps 746 mmHg 53%
04:00 +7°C° 0 mm 1 mps 746 mmHg 54%
05:00 +7°C° 0 mm 1 mps 746 mmHg 55%
06:00 +8°C° 0 mm 1 mps 746 mmHg 52%
07:00 +9°C° 0 mm 1 mps 746 mmHg 49%
08:00 +10°C° 0 mm 1 mps 746 mmHg 46%
09:00 +12°C° 0 mm 1 mps 746 mmHg 40%
10:00 +15°C° 0 mm 1 mps 746 mmHg 34%
11:00 +19°C° 0 mm 1 mps 746 mmHg 28%
12:00 +20°C° 0 mm 1 mps 746 mmHg 26%
13:00 +21°C° 0 mm 1 mps 746 mmHg 25%
14:00 +22°C° 0 mm 1 mps 746 mmHg 23%
15:00 +21°C° 0 mm 1 mps 745 mmHg 25%
16:00 +20°C° 0 mm 1 mps 745 mmHg 27%
17:00 +19°C° 0 mm 1 mps 745 mmHg 28%
18:00 +16°C° 0 mm 2 mps 745 mmHg 31%
19:00 +15°C° 0 mm 2 mps 745 mmHg 35%
20:00 +12°C° 0 mm 3 mps 745 mmHg 38%
21:00 +12°C° 0 mm 3 mps 745 mmHg 39%
22:00 +11°C° 0 mm 3 mps 745 mmHg 40%
23:00 +10°C° 0 mm 3 mps 745 mmHg 41%

26 October, Monday

Time Temperature Precipitation Wind Pressure Humidity
00:00 +10°C° 0 mm 2 mps 744 mmHg 42%
01:00 +10°C° 0 mm 2 mps 744 mmHg 43%
02:00 +9°C° 0 mm 2 mps 744 mmHg 44%
03:00 +10°C° 0 mm 1 mps 744 mmHg 45%
04:00 +10°C° 0 mm 1 mps 743 mmHg 45%
05:00 +10°C° 0 mm 1 mps 743 mmHg 46%
06:00 +10°C° 0 mm 1 mps 743 mmHg 43%
07:00 +11°C° 0 mm 1 mps 743 mmHg 40%
08:00 +12°C° 0 mm 1 mps 743 mmHg 37%
09:00 +15°C° 0 mm 1 mps 743 mmHg 32%
10:00 +19°C° 0 mm 1 mps 743 mmHg 26%
11:00 +22°C° 0 mm 1 mps 743 mmHg 20%
12:00 +23°C° 0 mm 1 mps 742 mmHg 19%
13:00 +24°C° 0 mm 2 mps 742 mmHg 17%
14:00 +25°C° 0 mm 2 mps 741 mmHg 16%
15:00 +24°C° 0 mm 2 mps 741 mmHg 17%
16:00 +23°C° 0 mm 2 mps 741 mmHg 18%
17:00 +21°C° 0 mm 2 mps 740 mmHg 20%
18:00 +19°C° 0 mm 2 mps 740 mmHg 22%
19:00 +17°C° 0 mm 2 mps 740 mmHg 25%
20:00 +15°C° 0 mm 2 mps 739 mmHg 28%
21:00 +14°C° 0 mm 2 mps 739 mmHg 28%
22:00 +14°C° 0 mm 2 mps 739 mmHg 29%
23:00 +13°C° 0 mm 1 mps 738 mmHg 30%

27 October, Tuesday

Time Temperature Precipitation Wind Pressure Humidity
00:00 +13°C° 0 mm 1 mps 738 mmHg 30%
01:00 +13°C° 0 mm 1 mps 738 mmHg 29%
02:00 +11°C° 0 mm 0 mps 738 mmHg 29%
03:00 +11°C° 0 mm 0 mps 737 mmHg 30%
04:00 +11°C° 0 mm 1 mps 737 mmHg 31%
05:00 +11°C° 0 mm 1 mps 737 mmHg 31%
06:00 +12°C° 0 mm 1 mps 737 mmHg 30%
07:00 +11°C° 0 mm 0 mps 737 mmHg 29%
08:00 +12°C° 0 mm 0 mps 737 mmHg 28%
09:00 +15°C° 0 mm 0 mps 737 mmHg 24%
10:00 +18°C° 0 mm 0 mps 737 mmHg 20%
11:00 +21°C° 0 mm 0 mps 737 mmHg 16%
12:00 +24°C° 0 mm 1 mps 737 mmHg 15%
13:00 +25°C° 0 mm 1 mps 737 mmHg 14%
14:00 +27°C° 0 mm 1 mps 737 mmHg 12%
15:00 +25°C° 0 mm 1 mps 737 mmHg 14%
16:00 +24°C° 0 mm 1 mps 737 mmHg 16%
17:00 +22°C° 0 mm 1 mps 737 mmHg 17%
18:00 +21°C° 0 mm 1 mps 737 mmHg 19%
19:00 +19°C° 0 mm 1 mps 737 mmHg 20%
20:00 +18°C° 0 mm 1 mps 737 mmHg 22%
21:00 +16°C° 0 mm 1 mps 738 mmHg 22%
22:00 +15°C° 0 mm 1 mps 738 mmHg 23%
23:00 +15°C° 0 mm 2 mps 738 mmHg 23%
Show more